Temp
11 11 10 10 9 9 9 8 8 7 7 7 7 7 6 6 6 6 6 6 6 6
10 10 9 9 9 8 8 7 7 7 6 6 6 6 6 5 5 5 5 5 5 5
9 9 9 8 8 7 7 7 6 6 6 6 5 5 5 4 4 4 4 4 4 4
9 8 8 7 7 7 6 6 6 5 5 5 5 4 4 4 3 3 3 3 3 3
8 7 7 7 6 6 6 5 5 5 4 4 4 3 3 3 3 3 2 1 1 1
7 7 6 6 5 5 5 5 4 4 4 3 3 3 3 3 2 1 0 0 0 0
6 6 5 5 5 4 4 4 4 3 3 3 3 3 3 2 2 1 -0 -1 -1 -0
5 5 5 4 4 4 4 3 3 3 3 3 3 3 2 2 1 0 -1 -2 -1 -0
5 4 4 4 4 3 3 3 3 3 3 3 2 2 1 1 1 -1 -2 -2 -1 -1
4 4 4 4 3 3 3 3 3 2 2 2 1 1 1 1 0 -1 -1 -1 -1 -1
4 4 3 3 3 3 2 2 2 2 1 1 1 1 1 0 0 -1 -1 -1 -2 -2
3 3 3 3 2 2 2 1 1 1 1 1 1 1 0 0 -0 -1 -1 -2 -2 -2
3 3 2 2 2 1 1 1 1 1 1 0 0 0 0 0 -1 -1 -2 -2 -3 -3
2 2 2 2 2 1 1 1 1 0 0 -0 -0 -1 -1 -1 -1 -2 -2 -4 -3 -3
Height
779 781 782 783 783 783 783 782 781 780 779 778 776 773 771 768 766 764 762 759 756 753
779 781 782 782 783 783 783 782 781 780 778 776 774 772 769 767 765 762 759 756 753 750
780 781 782 782 783 783 782 781 780 779 777 775 773 770 768 765 762 759 756 753 749 745
781 782 782 783 783 783 782 781 779 778 775 773 771 768 765 762 759 756 752 749 746 741
781 782 783 783 783 783 781 780 778 776 774 771 768 765 762 759 757 753 749 747 743 737
782 783 783 784 783 782 780 778 776 774 771 769 766 763 760 757 753 750 747 744 739 734
782 783 783 782 782 780 779 777 775 772 770 767 764 761 757 754 750 747 744 741 736 731
782 783 782 781 780 779 778 776 773 770 768 765 762 758 755 751 747 743 739 736 731 726
782 782 781 780 780 778 776 773 771 768 766 762 759 756 752 748 743 739 736 730 725 720
781 781 780 779 778 776 773 770 768 766 763 759 756 752 748 744 739 735 731 726 720 714
780 780 779 778 775 773 771 768 765 762 759 756 752 748 744 739 734 730 726 721 716 710
779 778 777 775 773 771 769 765 762 759 756 752 747 744 740 736 730 725 720 716 711 706
777 776 775 773 771 769 767 763 760 756 752 748 743 740 736 733 727 721 715 710 705 700
775 774 773 772 769 766 764 761 756 752 748 745 742 737 734 730 724 719 711 705 698 692
Wind_Speed
15 14 12 11 9 9 9 10 10 12 12 13 15 16 17 20 21 21 22 24 24 25
14 12 11 9 8 8 8 9 11 12 14 15 16 18 19 20 21 21 24 24 24 27
12 11 9 8 8 8 8 10 11 13 15 16 17 19 20 22 23 25 24 24 28 30
11 9 7 7 7 8 8 10 11 13 16 17 19 21 23 24 23 26 25 27 28 29
9 7 7 7 7 7 9 10 12 14 17 19 21 23 24 25 27 23 26 27 29 30
8 6 5 5 7 8 10 12 14 16 19 22 23 24 25 28 22 28 27 28 29 31
5 4 4 5 8 10 12 14 16 19 20 23 24 25 26 23 29 27 26 28 30 31
4 3 4 6 9 11 14 16 18 20 23 24 25 22 25 29 27 28 26 30 31 29
3 4 5 8 11 13 15 18 20 22 23 24 24 24 27 27 28 26 27 30 29 30
3 4 7 9 12 15 18 20 21 22 23 25 27 26 27 27 27 26 27 28 31 32
2 5 8 11 14 18 19 21 23 24 25 27 28 26 27 27 26 28 27 28 30 31
3 7 10 14 17 19 20 23 25 25 27 28 29 26 27 27 27 27 28 28 27 31
5 8 12 15 18 19 21 24 26 27 27 27 27 28 26 27 28 27 28 29 28 30
6 10 12 16 18 20 22 25 26 27 27 27 26 26 27 29 29 28 30 28 31 31
Wind_Direction
98 92 82 67 56 42 23 15 1 358 353 349 347 343 339 336 331 329 321 318 315 312
90 82 74 61 44 35 12 2 352 350 346 345 342 338 334 330 327 323 319 316 314 310
90 81 70 49 32 19 7 351 350 344 341 338 333 332 331 328 325 323 319 318 315 310
89 79 58 35 22 6 356 349 342 336 331 331 330 330 329 327 324 319 316 322 315 310
88 64 44 27 8 355 346 339 334 328 327 327 327 327 326 322 318 318 327 321 315 310
79 63 39 9 352 343 337 332 329 326 325 325 324 322 320 317 318 324 320 316 312 310
84 46 19 354 341 335 330 326 325 325 321 322 319 317 317 318 321 317 316 313 309 306
69 18 355 340 332 329 325 324 324 322 321 318 318 317 318 317 318 319 318 312 307 307
43 1 339 332 331 325 324 327 326 320 319 319 320 316 315 315 316 316 313 308 311 311
12 345 333 327 324 327 330 325 321 321 322 319 317 316 316 315 313 312 310 308 311 310
348 329 323 325 332 330 325 321 321 320 319 316 317 316 316 316 315 310 308 307 307 308
325 326 329 330 328 325 323 324 321 318 317 318 318 322 319 318 318 313 310 311 311 312
326 324 324 325 324 324 323 320 317 315 318 320 319 323 321 324 322 316 317 318 315 315
323 328 329 322 324 325 320 316 317 321 324 325 325 325 325 325 324 323 321 321 318 315